Weather History for Nuiqsut, AK

Change the Weather History Date:

Tuesday, March 5, 2013

  Actual Average (PAKU) Record (PAKU)
Temperature  
Mean Temperature -13 °F -  
Max Temperature -9 °F -7 °F 6 °F (2003)
Min Temperature -17 °F -18 °F -41 °F (2007)
Degree Days  
Heating Degree Days 78    
Moisture  
Dew Point -16 °F    
Average Humidity 84    
Maximum Humidity 92    
Minimum Humidity 77    
Precipitation  
Precipitation 0.00 in - - ()
Sea Level Pressure  
Sea Level Pressure 30.24 in    
Wind  
Wind Speed 27 mph (ENE)    
Max Wind Speed 31 mph    
Max Gust Speed 40 mph    
Visibility 1 miles    
Events Fog    
Averages and records for this station are not official NWS values.
T = Trace of Precipitation, MM = Missing Value Source: NWS Daily Summary

Daily Weather History Graph

Daily Weather History Graph

Search for Another Location

Airport:

Trip Planner

Search our weather history database for the weather conditions in past years. The results will help you decide how hot, cold, wet, or windy it might be!

Date:

Astronomy

Mar. 05, 2013 Rise Set
Actual Time 8:10 AM AKST 6:21 PM AKST
Civil Twilight 7:09 AM AKST 7:23 PM AKST
Nautical Twilight 5:57 AM AKST 8:35 PM AKST
Astronomical Twilight 4:38 AM AKST 9:56 PM AKST
Moon No Moon Rise No Moon Set
Length of Visible Light 12h 14m
Length of Day
10h 11m
Last Quarter, 39% of the Moon is Illuminated
Mar 5
Last Quarter
Mar 11
New
Mar 19
First Quarter
Mar 27
Full
Apr 2
Last Quarter

Hourly Weather History & Observations

Time (AKST) Temp. Windchill Dew Point Humidity Pressure Visibility Wind Dir Wind Speed Gust Speed Precip Events Conditions
12:53 AM -14.1 °F - -18.0 °F 82% 30.38 in 0.5 mi North - - N/A Fog Light Freezing Fog
1:53 AM -15.0 °F - -18.9 °F 82% 30.39 in 1.0 mi North - - N/A   Overcast
2:18 AM -14.8 °F - -18.4 °F 84% 30.37 in 0.8 mi North - - N/A   Overcast
3:53 AM -17.0 °F - -20.0 °F 86% 30.38 in 1.0 mi North - - N/A   Overcast
4:01 AM -16.6 °F - -20.2 °F 84% 30.37 in 0.8 mi North - - N/A   Overcast
4:53 AM -17.0 °F - -20.9 °F 82% 30.35 in 0.8 mi North - - N/A   Overcast
5:19 AM -16.6 °F - -20.2 °F 84% 30.35 in 1.0 mi North - - N/A   Overcast
5:53 AM -17.0 °F - -20.0 °F 86% 30.35 in 0.8 mi North - - N/A   Overcast
6:21 AM -16.6 °F - -20.2 °F 84% 30.35 in 1.0 mi North - - N/A   Overcast
6:41 AM -16.6 °F - -20.2 °F 84% 30.34 in 0.8 mi North - - N/A   Overcast
6:53 AM -16.1 °F - -20.0 °F 82% 30.35 in 0.5 mi North - - N/A Fog Light Freezing Fog
7:53 AM -16.1 °F - -18.9 °F 87% 30.33 in 0.5 mi North - - N/A Fog Light Freezing Fog
8:53 AM -16.1 °F - -18.9 °F 87% 30.31 in 0.2 mi North - - N/A Fog Light Freezing Fog
8:56 AM -16.6 °F - -18.4 °F 92% 30.30 in - North - - N/A   Unknown
9:03 AM -16.6 °F -47.9 °F -18.4 °F 92% 30.30 in 0.2 mi East 28.8 mph - N/A Fog Light Freezing Fog
9:53 AM -15.0 °F - -18.9 °F 82% 30.31 in 0.2 mi North - - N/A Fog Light Freezing Fog
10:09 AM -14.8 °F - -18.4 °F 84% 30.29 in - North - - N/A   Unknown
10:25 AM -14.8 °F - -18.4 °F 84% 30.29 in 0.2 mi North - - N/A Fog Light Freezing Fog
10:46 AM -14.8 °F - -18.4 °F 84% 30.29 in 0.2 mi North - - N/A Fog Light Freezing Fog
10:53 AM -14.1 °F - -18.0 °F 82% 30.29 in 0.2 mi North - - N/A Fog Light Freezing Fog
11:53 AM -13.0 °F - -17.0 °F 82% 30.27 in 0.2 mi North - - N/A Fog Light Freezing Fog
12:53 PM -11.9 °F - -15.0 °F 86% 30.27 in 0.2 mi North - - N/A Fog Light Freezing Fog
1:53 PM -9.9 °F - -14.1 °F 82% 30.26 in 0.2 mi North - - N/A Fog Light Freezing Fog
2:53 PM -9.0 °F -38.1 °F -13.0 °F 83% 30.24 in 0.5 mi East 29.9 mph - N/A Fog Light Freezing Fog
3:29 PM -9.4 °F -39.0 °F -13.0 °F 84% 30.23 in 0.5 mi East 31.1 mph 40.3 mph N/A Fog Light Freezing Fog
3:53 PM -9.9 °F -38.9 °F -13.0 °F 86% 30.23 in 0.8 mi East 28.8 mph - N/A   Mist
4:06 PM -9.4 °F -37.3 °F -13.0 °F 84% 30.22 in 1.2 mi East 26.5 mph - N/A   Partly Cloudy
4:31 PM -9.4 °F -37.3 °F -13.0 °F 84% 30.22 in 1.0 mi ENE 26.5 mph 32.2 mph N/A   Mist
4:49 PM -9.4 °F -36.8 °F -11.2 °F 92% 30.21 in 0.8 mi East 25.3 mph - N/A   Mist
4:53 PM -9.0 °F -34.8 °F -11.9 °F 87% 30.22 in 0.8 mi East 21.9 mph 32.2 mph N/A   Mist
5:16 PM -9.4 °F -36.3 °F -13.0 °F 84% 30.21 in 1.2 mi East 24.2 mph - N/A   Scattered Clouds
5:53 PM -9.9 °F -39.7 °F -14.1 °F 82% 30.21 in 1.2 mi East 31.1 mph 35.7 mph N/A   Clear
6:06 PM -9.4 °F -39.0 °F -14.8 °F 77% 30.20 in 0.8 mi ENE 31.1 mph - N/A   Clear
6:22 PM -9.4 °F -37.3 °F -14.8 °F 77% 30.20 in 1.0 mi ENE 26.5 mph - N/A   Clear
6:37 PM -9.4 °F -35.2 °F -14.8 °F 77% 30.20 in 3.0 mi ENE 21.9 mph - N/A   Clear
6:51 PM -9.4 °F -36.3 °F -14.8 °F 77% 30.20 in 2.0 mi ENE 24.2 mph - N/A   Clear
6:53 PM -9.9 °F -37.5 °F -14.1 °F 82% 30.20 in 2.0 mi ENE 25.3 mph - N/A   Clear
7:06 PM -9.4 °F -36.3 °F -14.8 °F 77% 30.20 in - ENE 24.2 mph 29.9 mph N/A   Partly Cloudy
7:48 PM -11.2 °F -37.0 °F -14.8 °F 84% 30.18 in 2.5 mi ENE 20.7 mph - N/A   Mist
7:53 PM -11.0 °F -37.4 °F -15.0 °F 83% 30.19 in 2.0 mi ENE 21.9 mph - N/A   Mist
7:59 PM -11.2 °F -38.7 °F -14.8 °F 84% 30.18 in - ENE 24.2 mph - N/A   Mostly Cloudy
8:08 PM -11.2 °F - -14.8 °F 84% 30.18 in - North - - N/A   Unknown
8:35 PM -11.2 °F - -14.8 °F 84% 30.18 in 2.0 mi North - - N/A   Mist
8:53 PM -11.0 °F - -15.0 °F 83% 30.17 in - North - - N/A   Mostly Cloudy
9:04 PM -11.2 °F - -14.8 °F 84% 30.15 in - North - - N/A   Unknown
9:27 PM -11.2 °F - -14.8 °F 84% 30.15 in 1.8 mi North - - N/A   Mist
9:42 PM -11.2 °F - -14.8 °F 84% 30.15 in - North - - N/A   Unknown
10:07 PM -11.2 °F -38.7 °F -14.8 °F 84% 30.15 in 1.5 mi ENE 24.2 mph - N/A   Mist
10:27 PM -11.2 °F -39.7 °F -14.8 °F 84% 30.14 in 1.0 mi ENE 26.5 mph - N/A   Overcast
10:53 PM -11.0 °F -39.4 °F -15.0 °F 83% 30.14 in 1.0 mi ENE 26.5 mph - N/A   Mist
11:26 PM -11.2 °F -38.7 °F -14.8 °F 84% 30.13 in 0.8 mi ENE 24.2 mph - N/A   Mist
11:36 PM -11.2 °F -38.2 °F -14.8 °F 84% 30.13 in 1.0 mi ENE 23.0 mph - N/A   Mist
11:49 PM -11.2 °F -39.7 °F -14.8 °F 84% 30.13 in 0.8 mi East 26.5 mph - N/A   Mist
11:53 PM -11.0 °F -39.9 °F -15.0 °F 83% 30.13 in 0.8 mi East 27.6 mph 33.4 mph N/A   Mist